TimeCST,TemperatureF,Dew PointF,Humidity,Sea Level PressureIn,VisibilityMPH,Wind Direction,Wind SpeedMPH,Gust SpeedMPH,PrecipitationIn,Events,Conditions,WindDirDegrees,DateUTC
12:15 AM,3.2,-0.4,85,29.98,10.0,Calm,Calm,-,N/A,,Clear,0,2012-12-23 06:15:00
12:35 AM,1.4,-0.4,92,29.97,10.0,Calm,Calm,-,N/A,,Clear,0,2012-12-23 06:35:00
12:55 AM,1.4,-0.4,92,29.98,10.0,Calm,Calm,-,N/A,,Clear,0,2012-12-23 06:55:00
1:15 AM,1.4,-0.4,92,29.99,10.0,Calm,Calm,-,N/A,,Clear,0,2012-12-23 07:15:00
1:35 AM,1.4,-2.2,85,29.99,10.0,Calm,Calm,-,N/A,,Clear,0,2012-12-23 07:35:00
1:55 AM,1.4,-2.2,85,29.99,10.0,Calm,Calm,-,N/A,,Clear,0,2012-12-23 07:55:00
2:15 AM,1.4,-2.2,85,29.99,10.0,Calm,Calm,-,N/A,,Clear,0,2012-12-23 08:15:00
2:35 AM,-0.4,-4.0,85,30.01,10.0,Calm,Calm,-,N/A,,Clear,0,2012-12-23 08:35:00
2:55 AM,-0.4,-4.0,85,30.00,10.0,Calm,Calm,-,N/A,,Clear,0,2012-12-23 08:55:00
3:15 AM,-0.4,-4.0,85,30.00,10.0,Calm,Calm,-,N/A,,Clear,0,2012-12-23 09:15:00
3:35 AM,-0.4,-4.0,85,30.01,10.0,Calm,Calm,-,N/A,,Clear,0,2012-12-23 09:35:00
3:55 AM,-0.4,-4.0,85,30.01,10.0,Calm,Calm,-,N/A,,Clear,0,2012-12-23 09:55:00
4:15 AM,-0.4,-4.0,85,30.02,4.0,Calm,Calm,-,N/A,Snow,Light Snow,0,2012-12-23 10:15:00
4:35 AM,1.4,-0.4,92,30.02,0.8,Calm,Calm,-,N/A,Snow,Snow,0,2012-12-23 10:35:00
4:55 AM,5.0,3.2,92,30.02,0.5,Calm,Calm,-,N/A,Snow,Snow,0,2012-12-23 10:55:00
5:15 AM,6.8,5.0,92,30.04,1.0,Calm,Calm,-,N/A,Snow,Light Snow,0,2012-12-23 11:15:00
5:35 AM,8.6,6.8,92,30.04,7.0,Calm,Calm,-,N/A,,Overcast,0,2012-12-23 11:35:00
5:55 AM,10.4,8.6,92,30.04,10.0,Calm,Calm,-,N/A,,Overcast,0,2012-12-23 11:55:00
6:15 AM,12.2,8.6,85,30.05,10.0,Calm,Calm,-,N/A,,Overcast,0,2012-12-23 12:15:00
6:35 AM,10.4,8.6,92,30.05,10.0,Calm,Calm,-,N/A,,Overcast,0,2012-12-23 12:35:00
6:55 AM,12.2,10.4,92,30.06,10.0,Calm,Calm,-,N/A,,Overcast,0,2012-12-23 12:55:00
7:15 AM,12.2,10.4,92,30.07,10.0,Calm,Calm,-,N/A,,Overcast,0,2012-12-23 13:15:00
7:35 AM,14.0,12.2,93,30.07,10.0,Calm,Calm,-,N/A,,Overcast,0,2012-12-23 13:35:00
7:55 AM,14.0,12.2,93,30.07,10.0,Calm,Calm,-,N/A,,Overcast,0,2012-12-23 13:55:00
8:15 AM,17.6,15.8,93,30.07,7.0,NNE,4.6,-,N/A,,Overcast,20,2012-12-23 14:15:00
8:35 AM,19.4,19.4,100,30.07,10.0,NE,8.1,-,N/A,,Overcast,40,2012-12-23 14:35:00
8:55 AM,19.4,17.6,93,30.07,10.0,NNE,8.1,-,N/A,,Overcast,30,2012-12-23 14:55:00
9:15 AM,19.4,17.6,93,30.07,10.0,NNE,8.1,-,N/A,,Overcast,20,2012-12-23 15:15:00
9:35 AM,19.4,15.8,86,30.07,10.0,NNE,8.1,-,N/A,,Overcast,30,2012-12-23 15:35:00
9:55 AM,21.2,15.8,80,30.08,10.0,NNE,5.8,-,N/A,,Overcast,20,2012-12-23 15:55:00
10:15 AM,21.2,15.8,80,30.08,10.0,North,8.1,-,N/A,,Overcast,10,2012-12-23 16:15:00
10:35 AM,21.2,14.0,74,30.09,10.0,Calm,Calm,-,N/A,,Mostly Cloudy,0,2012-12-23 16:35:00
10:55 AM,21.2,14.0,74,30.08,10.0,ENE,3.5,-,N/A,,Scattered Clouds,60,2012-12-23 16:55:00
11:15 AM,23.0,15.8,74,30.09,10.0,NW,5.8,-,N/A,,Mostly Cloudy,320,2012-12-23 17:15:00
11:35 AM,23.0,14.0,68,30.08,10.0,NNW,6.9,-,N/A,,Mostly Cloudy,330,2012-12-23 17:35:00
11:55 AM,24.8,15.8,69,30.07,10.0,NW,5.8,-,N/A,,Mostly Cloudy,310,2012-12-23 17:55:00
12:15 PM,23.0,14.0,68,30.07,10.0,NNW,6.9,-,N/A,,Mostly Cloudy,330,2012-12-23 18:15:00
12:35 PM,23.0,14.0,68,30.06,10.0,NW,4.6,-,N/A,,Scattered Clouds,320,2012-12-23 18:35:00
12:55 PM,23.0,15.8,74,30.05,10.0,Calm,Calm,-,N/A,,Clear,0,2012-12-23 18:55:00
1:15 PM,23.0,14.0,68,30.05,10.0,Calm,Calm,-,N/A,,Clear,0,2012-12-23 19:15:00
1:35 PM,24.8,14.0,64,30.05,10.0,Calm,Calm,-,N/A,,Clear,0,2012-12-23 19:35:00
1:55 PM,26.6,14.0,59,30.04,10.0,Calm,Calm,-,N/A,,Clear,0,2012-12-23 19:55:00
2:15 PM,24.8,15.8,69,30.04,10.0,Calm,Calm,-,N/A,,Clear,0,2012-12-23 20:15:00
2:35 PM,26.6,15.8,64,30.03,10.0,Calm,Calm,-,N/A,,Clear,0,2012-12-23 20:35:00
2:55 PM,26.6,15.8,64,30.03,10.0,Calm,Calm,-,N/A,,Clear,0,2012-12-23 20:55:00
3:15 PM,24.8,15.8,69,30.04,10.0,Calm,Calm,-,N/A,,Clear,0,2012-12-23 21:15:00
3:35 PM,24.8,15.8,69,30.04,10.0,Calm,Calm,-,N/A,,Clear,0,2012-12-23 21:35:00
3:55 PM,23.0,15.8,74,30.05,10.0,Calm,Calm,-,N/A,,Clear,0,2012-12-23 21:55:00
4:15 PM,23.0,15.8,74,30.05,10.0,West,3.5,-,N/A,,Clear,270,2012-12-23 22:15:00
4:35 PM,21.2,15.8,80,30.05,10.0,Calm,Calm,-,N/A,,Clear,0,2012-12-23 22:35:00
4:55 PM,21.2,15.8,80,30.05,10.0,Calm,Calm,-,N/A,,Clear,0,2012-12-23 22:55:00
5:15 PM,19.4,14.0,80,30.05,10.0,Calm,Calm,-,N/A,,Clear,0,2012-12-23 23:15:00
5:35 PM,19.4,14.0,80,30.05,10.0,Calm,Calm,-,N/A,,Clear,0,2012-12-23 23:35:00
5:55 PM,19.4,15.8,86,30.05,10.0,Calm,Calm,-,N/A,,Clear,0,2012-12-23 23:55:00
6:15 PM,19.4,14.0,80,30.06,10.0,Calm,Calm,-,N/A,,Clear,0,2012-12-24 00:15:00
6:35 PM,17.6,14.0,86,30.06,10.0,Calm,Calm,-,N/A,,Clear,0,2012-12-24 00:35:00
6:55 PM,17.6,15.8,93,30.05,10.0,Calm,Calm,-,N/A,,Clear,0,2012-12-24 00:55:00
7:15 PM,19.4,14.0,80,30.05,10.0,NE,3.5,-,N/A,,Clear,50,2012-12-24 01:15:00
7:35 PM,19.4,14.0,80,30.04,10.0,Calm,Calm,-,N/A,,Clear,0,2012-12-24 01:35:00
7:55 PM,17.6,12.2,79,30.04,10.0,Calm,Calm,-,N/A,,Clear,0,2012-12-24 01:55:00
8:15 PM,15.8,12.2,86,30.04,10.0,Calm,Calm,-,N/A,,Clear,0,2012-12-24 02:15:00
8:55 PM,14.0,12.2,93,30.03,10.0,Calm,Calm,-,N/A,,Clear,0,2012-12-24 02:55:00
9:15 PM,12.2,10.4,92,30.04,10.0,Calm,Calm,-,N/A,,Clear,0,2012-12-24 03:15:00
9:35 PM,14.0,12.2,93,30.04,10.0,Calm,Calm,-,N/A,,Clear,0,2012-12-24 03:35:00
9:55 PM,14.0,12.2,93,30.03,10.0,East,3.5,-,N/A,,Clear,90,2012-12-24 03:55:00
10:15 PM,14.0,12.2,93,30.03,10.0,Calm,Calm,-,N/A,,Clear,0,2012-12-24 04:15:00
10:35 PM,14.0,12.2,93,30.03,10.0,Calm,Calm,-,N/A,,Clear,0,2012-12-24 04:35:00
10:55 PM,14.0,12.2,93,30.02,10.0,Calm,Calm,-,N/A,,Clear,0,2012-12-24 04:55:00
11:15 PM,14.0,12.2,93,30.03,10.0,Calm,Calm,-,N/A,,Clear,0,2012-12-24 05:15:00
11:35 PM,14.0,12.2,93,30.02,10.0,Calm,Calm,-,N/A,,Clear,0,2012-12-24 05:35:00
11:55 PM,14.0,12.2,93,30.01,10.0,Calm,Calm,-,N/A,,Clear,0,2012-12-24 05:55:00